1486299600.01,58354,11.31,72188.5,-0.59,-35.13,-35.71,0,*67
1486299601.25,58355,11.31,72192.0,-0.59,-34.59,-35.17,0,*69
1486299602.51,58356,11.31,72192.0,-0.59,-34.95,-35.47,0,*6F
1486299603.73,58357,11.31,72196.8,-0.57,-35.29,-35.89,0,*64
1486299604.94,58358,11.31,72194.5,-0.57,-35.53,-36.07,0,*63
1486299606.14,58359,11.31,72194.5,-0.57,-35.71,-36.31,0,*67
1486299607.37,58360,11.31,72194.0,-0.57,-36.01,-36.61,0,*6C
1486299608.62,58361,11.31,72194.0,-0.59,-37.33,-37.93,0,*6F
1486299609.88,58362,11.31,72194.0,-0.57,-37.21,-37.81,0,*62
1486299611.17,58363,11.31,72190.3,-0.59,-37.81,-38.49,0,*6C
1486299612.39,58364,11.25,72188.8,-0.61,-38.23,-38.85,0,*67
1486299613.64,58365,11.31,72192.8,-0.63,-38.23,-38.85,0,*64
1486299614.87,58366,11.31,72192.5,-0.63,-37.45,-38.17,0,*63
1486299616.11,58367,11.31,72194.8,-0.63,-36.07,-36.55,0,*6D
1486299617.33,58368,11.31,72194.0,-0.67,-36.31,-36.97,0,*6D
1486299618.54,58369,11.31,72192.5,-0.69,-36.01,-36.55,0,*6F
1486299619.79,58370,11.31,72188.3,-0.67,-35.65,-36.31,0,*6A
1486299621.06,58371,11.31,72194.0,-0.67,-36.13,-36.61,0,*6C
1486299622.34,58372,11.31,72194.0,-0.67,-35.95,-36.37,0,*61
1486299623.56,58373,11.31,72188.5,-0.63,-35.71,-36.31,0,*68
1486299624.82,58374,11.31,72194.5,-0.63,-35.41,-35.89,0,*6C
1486299626.05,58375,11.31,72194.5,-0.63,-35.17,-35.77,0,*6F
1486299627.31,58376,11.31,72192.0,-0.63,-35.35,-35.77,0,*6C
1486299628.51,58377,11.31,72192.5,-0.61,-35.17,-35.71,0,*69
1486299629.73,58378,11.31,72192.5,-0.61,-35.23,-35.71,0,*61
1486299630.96,58379,11.31,72192.3,-0.61,-36.13,-36.67,0,*64
1486299632.16,58380,11.31,72188.0,-0.61,-35.17,-35.77,0,*67
1486299633.41,58381,11.31,72192.3,-0.59,-35.13,-35.65,0,*6A
1486299634.67,58382,11.31,72190.5,-0.59,-36.25,-36.85,0,*62
1486299635.92,58383,11.31,72190.5,-0.59,-36.79,-37.33,0,*66
1486299637.14,58384,11.31,72190.8,-0.61,-37.51,-38.17,0,*68
1486299638.34,58385,11.31,72190.8,-0.61,-37.45,-38.05,0,*6F
1486299639.59,58386,11.31,72192.5,-0.63,-36.67,-37.09,0,*6C
1486299640.82,58387,11.31,72194.3,-0.63,-36.55,-37.03,0,*66
1486299642.1,58388,11.31,72192.0,-0.63,-35.53,-35.95,0,*61
1486299643.32,58389,11.31,72192.0,-0.63,-35.59,-36.07,0,*62
1486299644.55,58390,11.31,72194.5,-0.61,-36.13,-36.55,0,*62
1486299645.8,58391,11.31,72196.0,-0.63,-36.37,-37.03,0,*65
1486299647.02,58392,11.31,72194.3,-0.63,-35.17,-35.71,0,*60
1486299648.25,58393,11.31,72190.8,-0.61,-35.23,-35.71,0,*64
1486299649.5,58394,11.31,72192.5,-0.59,-35.13,-35.65,0,*6E
1486299650.73,58395,11.31,72192.5,-0.59,-35.47,-36.07,0,*69
1486299651.96,58396,11.31,72192.8,-0.59,-36.19,-36.67,0,*64
1486299653.22,58397,11.31,72194.5,-0.59,-36.25,-36.67,0,*6A
1486299654.45,58398,11.31,72190.8,-0.59,-35.89,-36.31,0,*63
1486299655.71,58399,11.31,72194.3,-0.59,-36.07,-36.61,0,*62
1486299656.94,58400,11.31,72190.8,-0.59,-35.89,-36.43,0,*60
1486299658.16,58401,11.31,72194.5,-0.61,-35.59,-36.13,0,*62
1486299659.37,58402,11.31,72190.0,-0.61,-35.77,-36.31,0,*6D
1486299660.62,58403,11.31,72192.3,-0.59,-35.65,-36.07,0,*61
1486299661.84,58404,11.31,72194.8,-0.57,-36.07,-36.49,0,*65
1486299663.09,58405,11.31,72194.3,-0.59,-35.65,-36.07,0,*67
1486299664.33,58406,11.31,72194.3,-0.59,-35.47,-35.89,0,*61
1486299665.58,58407,11.31,72192.5,-0.59,-35.13,-35.53,0,*66
1486299666.84,58408,11.25,72190.0,-0.57,-34.95,-35.35,0,*68
1486299668.06,58409,11.31,72192.0,-0.57,-35.53,-36.01,0,*66
1486299669.28,58410,11.31,72194.8,-0.57,-36.19,-36.61,0,*65
1486299670.5,58411,11.31,72194.3,-0.57,-35.29,-35.89,0,*61
1486299671.69,58412,11.31,72192.5,-0.57,-36.31,-36.85,0,*67
1486299672.9,58413,11.31,72196.0,-0.57,-36.07,-36.67,0,*6F
1486299674.15,58414,11.31,72192.5,-0.59,-35.53,-36.07,0,*62
1486299675.35,58415,11.31,72190.5,-0.57,-36.01,-36.43,0,*69
1486299676.56,58416,11.31,72194.8,-0.57,-35.65,-36.07,0,*6B
1486299677.79,58417,11.31,72194.0,-0.57,-35.13,-35.65,0,*6C
1486299679.04,58418,11.31,72194.5,-0.55,-34.95,-35.47,0,*6E
1486299680.32,58419,11.31,72196.0,-0.55,-34.95,-35.41,0,*69
1486299681.58,58420,11.31,72194.3,-0.55,-35.23,-35.77,0,*6A
1486299682.78,58421,11.31,72196.8,-0.53,-35.77,-36.19,0,*67
1486299683.98,58422,11.31,72192.8,-0.53,-35.59,-36.01,0,*61
1486299685.21,58423,11.31,72198.5,-0.53,-35.95,-36.43,0,*66
1486299686.49,58424,11.31,72192.5,-0.51,-35.53,-35.95,0,*61
1486299687.74,58425,11.31,72196.5,-0.51,-36.13,-36.67,0,*69
1486299688.99,58426,11.31,72194.8,-0.53,-35.95,-36.37,0,*60
1486299690.24,58427,11.31,72196.5,-0.53,-36.13,-36.61,0,*6F
1486299691.49,58428,11.31,72192.5,-0.55,-36.13,-36.43,0,*66
1486299692.76,58429,11.31,72194.0,-0.51,-35.95,-36.37,0,*6D
1486299694.0,58430,11.31,72198.0,-0.53,-35.47,-35.95,0,*63
1486299695.2,58431,11.31,72192.3,-0.53,-34.89,-35.13,0,*6F
1486299696.44,58432,11.31,72192.3,-0.53,-35.23,-35.65,0,*6C
1486299697.68,58433,11.31,72192.3,-0.49,-34.77,-35.07,0,*62
1486299698.92,58434,11.31,72194.0,-0.49,-35.95,-36.55,0,*6C
1486299700.17,58435,11.31,72194.5,-0.51,-36.13,-36.67,0,*68
1486299701.42,58436,11.31,72192.3,-0.51,-36.13,-36.67,0,*6B
1486299702.68,58437,11.31,72188.5,-0.49,-36.49,-36.91,0,*65
1486299703.92,58438,11.31,72194.0,-0.49,-36.13,-36.37,0,*69
1486299705.18,58439,11.31,72194.3,-0.51,-35.41,-35.89,0,*63
1486299706.44,58440,11.31,72190.3,-0.51,-35.53,-35.89,0,*6E
1486299707.69,58441,11.31,72194.5,-0.51,-35.77,-36.37,0,*6F
1486299708.92,58442,11.31,72192.3,-0.49,-35.35,-35.77,0,*64
1486299710.18,58443,11.31,72194.3,-0.49,-35.95,-36.37,0,*68
1486299711.38,58444,11.31,72192.3,-0.49,-36.19,-36.73,0,*68
1486299712.59,58445,11.31,72194.0,-0.49,-36.07,-36.67,0,*63
1486299713.79,58446,11.31,72194.0,-0.49,-35.71,-36.19,0,*6B
1486299715.02,58447,11.31,72192.8,-0.51,-36.07,-36.85,0,*64
1486299716.25,58448,11.31,72194.0,-0.51,-36.85,-37.33,0,*6D
1486299717.48,58449,11.31,72194.0,-0.51,-35.89,-36.55,0,*62
1486299718.74,58450,11.31,72194.0,-0.51,-35.35,-35.89,0,*6F
1486299720.02,58451,11.31,72196.0,-0.51,-35.41,-36.13,0,*6D
1486299721.25,58452,11.31,72198.0,-0.49,-35.23,-35.89,0,*63
1486299722.49,58453,11.31,72196.8,-0.49,-34.77,-35.23,0,*62
1486299723.72,58454,11.31,72192.5,-0.49,-35.07,-35.59,0,*6E
1486299724.96,58455,11.31,72198.0,-0.49,-34.59,-35.07,0,*6E
1486299726.23,58456,11.31,72192.8,-0.47,-34.95,-35.65,0,*67
1486299727.43,58457,11.31,72190.3,-0.45,-35.13,-35.71,0,*6E
1486299728.63,58458,11.31,72194.0,-0.45,-35.17,-35.71,0,*65
1486299729.89,58459,11.31,72190.8,-0.45,-34.95,-35.35,0,*6F
1486299731.14,58460,11.31,72194.8,-0.43,-34.95,-35.59,0,*69
1486299732.38,58461,11.31,72192.0,-0.43,-34.71,-35.13,0,*6C
1486299733.61,58462,11.31,72196.0,-0.39,-34.47,-34.89,0,*65
1486299734.86,58463,11.31,72192.5,-0.39,-34.89,-35.41,0,*63
1486299736.14,58464,11.31,72194.0,-0.43,-34.95,-35.35,0,*67
1486299737.37,58465,11.31,72194.3,-0.39,-34.41,-34.71,0,*63
1486299738.62,58466,11.31,72192.0,-0.37,-34.83,-35.35,0,*61
1486299739.85,58467,11.31,72194.8,-0.35,-35.29,-35.71,0,*63
1486299741.1,58468,11.31,72192.3,-0.35,-35.29,-35.65,0,*69
1486299742.35,58469,11.31,72194.3,-0.37,-34.83,-35.23,0,*69
1486299743.64,58470,11.31,72192.8,-0.35,-34.53,-34.95,0,*62
1486299744.88,58471,11.31,72188.5,-0.35,-34.77,-35.13,0,*6A
1486299746.09,58472,11.31,72190.3,-0.33,-34.59,-35.01,0,*60
1486299747.32,58473,11.31,72194.0,-0.33,-34.25,-34.53,0,*6C
1486299748.58,58474,11.31,72192.5,-0.31,-34.53,-34.89,0,*6F
1486299749.8,58475,11.31,72192.8,-0.29,-35.23,-35.59,0,*6D
1486299751.03,58476,11.31,72188.8,-0.29,-34.89,-35.23,0,*62
1486299752.26,58477,11.31,72194.0,-0.29,-34.83,-35.17,0,*6E
1486299753.46,58478,11.31,72188.5,-0.29,-36.55,-36.97,0,*63
1486299754.7,58479,11.31,72188.3,-0.29,-36.37,-36.67,0,*69
1486299755.95,58480,11.31,72190.3,-0.31,-37.39,-37.75,0,*6B
1486299757.23,58481,11.31,72192.8,-0.31,-37.69,-37.93,0,*67
1486299758.48,58482,11.31,72190.3,-0.35,-37.45,-37.81,0,*6D
1486299759.68,58483,11.31,72190.5,-0.37,-37.27,-37.45,0,*62
1486299760.88,58484,11.31,72190.8,-0.37,-36.85,-37.03,0,*6E
1486299762.12,58485,11.31,72190.8,-0.37,-35.95,-35.89,0,*6D
1486299763.34,58486,11.31,72188.3,-0.37,-35.41,-35.71,0,*60
1486299764.54,58487,11.31,72190.5,-0.37,-35.89,-35.71,0,*65
1486299765.76,58488,11.31,72186.5,-0.37,-35.41,-35.17,0,*6E
1486299767.01,58489,11.31,72190.8,-0.35,-35.17,-34.95,0,*65
1486299768.24,58490,11.31,72190.8,-0.35,-35.89,-35.47,0,*64
1486299769.5,58491,11.31,72188.5,-0.35,-36.97,-36.49,0,*64
1486299770.74,58492,11.31,72186.3,-0.37,-36.37,-35.89,0,*60
1486299771.97,58493,11.31,72192.0,-0.35,-35.71,-35.01,0,*62
1486299773.19,58494,11.31,72188.3,-0.37,-35.01,-34.31,0,*62
1486299774.42,58495,11.31,72188.8,-0.35,-35.71,-35.17,0,*63
1486299775.68,58496,11.31,72188.8,-0.37,-36.49,-35.95,0,*60
1486299776.89,58497,11.31,72190.8,-0.37,-37.03,-36.55,0,*61
1486299778.12,58498,11.31,72190.0,-0.37,-36.37,-36.01,0,*69
1486299779.39,58499,11.31,72194.0,-0.43,-35.83,-35.65,0,*66
1486299780.62,58500,11.31,72192.5,-0.43,-37.15,-37.15,0,*6F
1486299781.86,58501,11.31,72192.5,-0.43,-35.41,-35.59,0,*67
1486299783.1,58502,11.31,72194.0,-0.43,-34.77,-35.29,0,*67
1486299784.33,58503,11.31,72196.0,-0.45,-34.53,-35.17,0,*6B
1486299785.55,58504,11.31,72194.3,-0.45,-33.61,-34.41,0,*68
1486299786.8,58505,11.31,72194.0,-0.45,-33.31,-34.53,0,*6F
1486299788.08,58506,11.31,72194.5,-0.43,-33.43,-34.65,0,*6A
1486299789.31,58507,11.31,72194.3,-0.43,-33.83,-35.59,0,*69
1486299790.58,58508,11.31,72192.5,-0.39,-33.31,-35.07,0,*69
1486299791.86,58509,11.31,72192.5,-0.39,-33.61,-35.53,0,*6C
1486299793.11,58510,11.31,72188.3,-0.43,-34.77,-36.79,0,*62
1486299794.37,58511,11.31,72188.3,-0.43,-34.65,-36.55,0,*6E
1486299795.6,58512,11.31,72192.0,-0.39,-35.01,-36.85,0,*6E
1486299796.86,58513,11.31,72186.5,-0.39,-34.71,-36.37,0,*60
1486299798.12,58514,11.31,72184.0,-0.39,-35.01,-36.49,0,*68
1486299799.35,58515,11.31,72188.0,-0.39,-34.71,-36.19,0,*6A
1486299800.6,58516,11.31,72188.5,-0.39,-34.31,-35.59,0,*6A
1486299801.86,58517,11.31,72188.0,-0.39,-34.41,-35.53,0,*66
1486299803.07,58518,11.31,72184.0,-0.37,-34.47,-35.59,0,*6B
1486299804.3,58519,11.31,72188.0,-0.37,-34.47,-35.35,0,*60
1486299805.52,58520,11.31,72190.3,-0.37,-36.19,-37.09,0,*6E
1486299806.77,58521,11.31,72188.0,-0.37,-36.13,-36.91,0,*65
1486299808.05,58522,11.31,72188.0,-0.43,-36.25,-37.09,0,*60
1486299809.3,58523,11.31,72190.5,-0.39,-36.49,-37.15,0,*6B
1486299810.55,58524,11.31,72190.0,-0.43,-36.07,-36.61,0,*69
1486299811.81,58525,11.31,72192.0,-0.39,-35.89,-36.49,0,*6A
1486299813.06,58526,11.31,72192.5,-0.39,-35.77,-36.13,0,*67
1486299814.3,58527,11.31,72188.0,-0.39,-35.41,-35.59,0,*6E
1486299815.55,58528,11.31,72188.5,-0.39,-35.17,-35.35,0,*68
1486299816.81,58529,11.31,72190.5,-0.39,-34.83,-34.59,0,*6E
1486299818.02,58530,11.31,72190.8,-0.37,-34.71,-34.47,0,*6A
1486299819.25,58531,11.31,72188.0,-0.35,-34.59,-34.07,0,*67
1486299820.51,58532,11.31,72190.3,-0.35,-34.53,-33.83,0,*65
1486299821.74,58533,11.31,72188.5,-0.33,-34.41,-33.73,0,*6E
1486299822.99,58534,11.31,72190.0,-0.31,-34.31,-33.37,0,*6C
1486299824.27,58535,11.31,72190.8,-0.31,-34.35,-33.49,0,*60
1486299825.52,58536,11.31,72190.8,-0.29,-34.47,-33.43,0,*65
1486299826.75,58537,11.31,72188.0,-0.29,-34.71,-33.89,0,*67
1486299828.01,58538,11.31,72188.5,-0.29,-34.53,-33.73,0,*6D
1486299829.27,58539,11.31,72188.8,-0.29,-34.53,-33.89,0,*69
1486299830.51,58540,11.31,72188.8,-0.27,-33.61,-33.15,0,*6A
1486299831.78,58541,11.31,72194.0,-0.27,-33.77,-33.61,0,*6F
1486299833.04,58542,11.31,72188.5,-0.27,-33.37,-33.31,0,*6D
1486299834.29,58543,11.31,72190.3,-0.27,-33.03,-33.31,0,*6B
1486299835.5,58544,11.31,72190.5,-0.27,-33.55,-34.25,0,*6D
1486299836.73,58545,11.31,72188.5,-0.25,-33.27,-34.07,0,*6B
1486299837.98,58546,11.31,72190.8,-0.23,-33.49,-34.47,0,*62
1486299839.24,58547,11.31,72188.5,-0.23,-33.37,-34.65,0,*6A
1486299840.44,58548,11.31,72190.3,-0.25,-33.55,-35.17,0,*63
1486299841.66,58549,11.31,72194.5,-0.21,-33.77,-35.59,0,*6C
1486299842.88,58550,11.31,72188.8,-0.21,-35.13,-36.61,0,*68
1486299844.13,58551,11.31,72192.8,-0.25,-35.53,-36.91,0,*66
1486299845.35,58552,11.31,72190.8,-0.25,-35.17,-36.49,0,*60
1486299846.6,58553,11.31,72190.5,-0.23,-35.89,-37.09,0,*65
1486299847.86,58554,11.31,72190.8,-0.25,-35.95,-37.39,0,*6A
1486299849.09,58555,11.31,72190.8,-0.25,-35.89,-37.09,0,*65
1486299850.32,58556,11.31,72190.3,-0.25,-35.29,-36.13,0,*66
1486299851.55,58557,11.31,72188.5,-0.25,-35.13,-35.95,0,*63
1486299852.79,58558,11.31,72190.0,-0.25,-35.47,-36.25,0,*65
1486299854.04,58559,11.31,72186.5,-0.25,-35.35,-36.13,0,*64
1486299855.31,58560,11.31,72188.5,-0.23,-35.65,-36.25,0,*68
1486299856.54,58561,11.31,72186.5,-0.23,-35.13,-35.77,0,*6C
1486299857.77,58562,11.31,72184.8,-0.23,-35.01,-35.71,0,*6A
1486299859.02,58563,11.31,72184.5,-0.23,-35.77,-36.49,0,*62
1486299860.27,58564,11.31,72186.0,-0.23,-36.67,-37.21,0,*68
1486299861.5,58565,11.31,72184.5,-0.25,-36.49,-37.03,0,*63
1486299862.76,58566,11.31,72186.0,-0.25,-37.09,-37.63,0,*63
1486299864.0,58567,11.31,72186.8,-0.25,-37.27,-37.63,0,*6E
1486299865.22,58568,11.31,72186.5,-0.25,-36.79,-37.27,0,*6B
1486299866.45,58569,11.31,72184.8,-0.29,-37.63,-38.05,0,*63
1486299867.72,58570,11.31,72182.8,-0.27,-36.49,-36.91,0,*6F
1486299868.93,58571,11.31,72184.8,-0.29,-36.73,-37.15,0,*64
1486299870.16,58572,11.31,72184.8,-0.29,-36.85,-37.09,0,*63
1486299871.39,58573,11.31,72184.8,-0.29,-36.01,-36.49,0,*6B
1486299872.59,58574,11.31,72188.8,-0.29,-35.77,-36.19,0,*6B
1486299873.82,58575,11.31,72188.5,-0.27,-35.77,-36.31,0,*6E
1486299875.08,58576,11.31,72190.0,-0.27,-35.95,-36.31,0,*61
1486299876.33,58577,11.31,72190.0,-0.29,-35.41,-35.83,0,*6D
1486299877.56,58578,11.31,72188.8,-0.27,-36.01,-36.31,0,*61
1486299878.76,58579,11.31,72192.5,-0.25,-35.17,-35.47,0,*64
1486299879.99,58580,11.31,72190.8,-0.25,-35.53,-35.77,0,*61
1486299881.23,58581,11.31,72192.0,-0.25,-35.35,-35.65,0,*63
1486299882.48,58582,11.31,72192.5,-0.27,-35.41,-35.71,0,*64
1486299883.75,58583,11.31,72192.3,-0.27,-36.13,-36.37,0,*60
1486299885.0,58584,11.31,72192.5,-0.27,-36.73,-37.09,0,*6D
1486299886.23,58585,11.31,72194.0,-0.27,-36.31,-36.55,0,*62
1486299887.48,58586,11.31,72198.3,-0.27,-35.23,-35.71,0,*64
1486299888.74,58587,11.31,72192.5,-0.25,-34.83,-35.35,0,*6C
1486299889.94,58588,11.31,72192.3,-0.25,-36.07,-36.43,0,*6F
1486299891.17,58589,11.31,72194.0,-0.25,-35.53,-35.77,0,*68
1486299892.44,58590,11.31,72192.3,-0.23,-36.25,-36.79,0,*69
1486299893.67,58591,11.31,72192.3,-0.25,-37.63,-38.05,0,*68
1486299894.92,58592,11.31,72194.5,-0.27,-36.91,-37.33,0,*6F
1486299896.12,58593,11.31,72196.0,-0.29,-36.55,-36.97,0,*67
1486299897.38,58594,11.31,72190.5,-0.29,-35.83,-36.13,0,*64
1486299898.62,58595,11.31,72190.8,-0.27,-35.41,-35.71,0,*62
1486299899.87,58596,11.31,72196.3,-0.27,-35.17,-35.41,0,*61
1486299901.12,58597,11.31,72192.8,-0.27,-35.01,-35.23,0,*63
1486299902.38,58598,11.31,72192.0,-0.23,-34.83,-35.29,0,*69
1486299903.61,58599,11.31,72194.5,-0.25,-35.47,-35.53,0,*6A
1486299904.84,58600,11.31,72188.0,-0.23,-35.53,-35.71,0,*6A
1486299906.09,58601,11.31,72194.5,-0.23,-35.47,-35.53,0,*6E
1486299907.32,58602,11.31,72192.3,-0.23,-35.29,-35.47,0,*60
1486299908.57,58603,11.31,72190.8,-0.23,-35.65,-35.89,0,*6B
1486299909.77,58604,11.31,72188.0,-0.21,-35.59,-35.71,0,*66
1486299910.99,58605,11.31,72186.5,-0.21,-35.83,-36.19,0,*6D
1486299912.22,58606,11.31,72188.3,-0.21,-35.89,-36.25,0,*6B
1486299913.48,58607,11.31,72190.8,-0.17,-35.65,-35.89,0,*68
1486299914.68,58608,11.31,72188.8,-0.21,-35.29,-35.59,0,*67
1486299915.9,58609,11.31,72186.0,-0.21,-35.13,-35.41,0,*66
1486299917.19,58610,11.31,72184.3,-0.17,-35.07,-35.41,0,*6E
1486299918.42,58611,11.31,72186.0,-0.17,-35.29,-35.71,0,*60
1486299919.69,58612,11.31,72184.8,-0.17,-35.07,-35.29,0,*62
1486299920.94,58613,11.31,72184.0,-0.17,-36.01,-36.37,0,*6A
1486299922.22,58614,11.31,72182.5,-0.17,-36.79,-37.21,0,*64
1486299923.48,58615,11.31,72180.0,-0.17,-35.83,-36.19,0,*69
1486299924.73,58616,11.31,72184.5,-0.17,-36.01,-36.37,0,*6F
1486299925.97,58617,11.31,72180.3,-0.21,-36.25,-36.55,0,*69
1486299927.23,58618,11.31,72184.0,-0.17,-35.89,-36.25,0,*61
1486299928.47,58619,11.31,72186.3,-0.17,-36.19,-36.55,0,*6D
1486299929.67,58620,11.31,72180.8,-0.21,-35.71,-36.01,0,*6E
1486299930.91,58621,11.31,72184.0,-0.17,-35.13,-35.47,0,*6F
1486299932.16,58622,11.31,72182.3,-0.17,-35.65,-36.01,0,*6C
1486299933.43,58623,11.31,72186.5,-0.17,-36.01,-36.25,0,*6A
1486299934.66,58624,11.31,72186.0,-0.17,-36.73,-37.03,0,*6D
1486299935.88,58625,11.31,72186.0,-0.21,-36.55,-36.79,0,*61
1486299937.11,58626,11.31,72188.3,-0.21,-36.61,-36.97,0,*65
1486299938.35,58627,11.31,72184.8,-0.21,-36.79,-37.21,0,*61
1486299939.57,58628,11.31,72190.8,-0.21,-36.43,-36.79,0,*6B
1486299940.8,58629,11.31,72188.5,-0.21,-36.55,-36.79,0,*6D
1486299942.04,58630,11.31,72186.8,-0.23,-36.43,-36.79,0,*60
1486299943.27,58631,11.31,72188.5,-0.23,-36.43,-36.67,0,*6E
1486299944.5,58632,11.31,72184.8,-0.23,-36.07,-36.31,0,*6E
1486299945.77,58633,11.31,72188.0,-0.23,-36.13,-36.61,0,*6F
1486299947.01,58634,11.31,72190.5,-0.23,-36.91,-37.27,0,*61
1486299948.24,58635,11.31,72188.5,-0.23,-36.31,-36.67,0,*6F
1486299949.52,58636,11.31,72186.0,-0.23,-36.61,-36.91,0,*60
1486299950.72,58637,11.31,72184.3,-0.25,-36.67,-36.85,0,*64
1486299951.97,58638,11.31,72188.5,-0.25,-36.61,-36.79,0,*6E
1486299953.18,58639,11.31,72186.3,-0.25,-36.31,-36.67,0,*65
1486299954.41,58640,11.38,72184.8,-0.25,-37.39,-37.75,0,*60
1486299955.66,58641,11.31,72186.3,-0.27,-37.15,-37.63,0,*6A
1486299956.9,58642,11.31,72186.3,-0.29,-37.15,-37.63,0,*67
1486299958.16,58643,11.31,72184.3,-0.29,-37.51,-37.81,0,*6A
1486299959.41,58644,11.31,72182.3,-0.29,-37.63,-37.99,0,*65
1486299960.65,58645,11.31,72178.5,-0.29,-37.63,-37.87,0,*6B
1486299961.85,58646,11.31,72176.8,-0.29,-36.97,-37.27,0,*68
1486299963.09,58647,11.31,72178.3,-0.33,-36.97,-37.09,0,*6E
1486299964.32,58648,11.31,72176.5,-0.33,-36.85,-37.09,0,*62
1486299965.59,58649,11.31,72182.8,-0.31,-36.61,-36.91,0,*6B
1486299966.83,58650,11.31,72182.0,-0.33,-37.27,-37.63,0,*6E
1486299968.03,58651,11.31,72182.5,-0.33,-38.35,-38.73,0,*6D
1486299969.23,58652,11.31,72182.5,-0.33,-38.43,-38.73,0,*6F
1486299970.45,58653,11.31,72184.0,-0.33,-37.09,-37.45,0,*65
1486299971.68,58654,11.31,72184.0,-0.37,-37.81,-38.05,0,*6D
1486299972.91,58655,11.31,72184.3,-0.37,-37.27,-37.51,0,*6E
1486299974.17,58656,11.31,72182.8,-0.35,-36.85,-37.21,0,*61
1486299975.4,58657,11.31,72184.8,-0.37,-37.27,-37.63,0,*6D
1486299976.65,58658,11.31,72182.3,-0.37,-37.63,-37.81,0,*6E
1486299977.91,58659,11.31,72186.8,-0.37,-37.99,-38.23,0,*6D
1486299979.17,58660,11.31,72184.3,-0.39,-37.81,-38.17,0,*67
1486299980.42,58661,11.31,72182.3,-0.43,-38.23,-38.55,0,*6A
1486299981.66,58662,11.31,72186.3,-0.43,-38.29,-38.73,0,*67
1486299982.89,58663,11.31,72188.0,-0.45,-38.73,-39.15,0,*6E
1486299984.12,58664,11.31,72186.0,-0.45,-38.61,-39.15,0,*6A
1486299985.37,58665,11.31,72184.0,-0.47,-39.47,-40.09,0,*6F
1486299986.65,58666,11.31,72186.8,-0.51,-39.41,-39.97,0,*64
1486299987.87,58667,11.31,72184.0,-0.53,-39.23,-40.03,0,*60
1486299989.13,58668,11.31,72186.0,-0.55,-37.75,-38.29,0,*63
1486299990.35,58669,11.31,72184.0,-0.55,-37.15,-37.87,0,*6F
1486299991.61,58670,11.31,72184.8,-0.55,-35.83,-36.43,0,*63
1486299992.86,58671,11.31,72186.0,-0.55,-35.83,-36.55,0,*65
1486299994.09,58672,11.31,72190.8,-0.53,-36.25,-37.15,0,*6A
1486299995.34,58673,11.31,72190.0,-0.55,-36.25,-37.27,0,*6C
1486299996.58,58674,11.31,72186.8,-0.55,-35.77,-36.55,0,*6B
1486299997.83,58675,11.31,72186.8,-0.55,-36.55,-37.51,0,*6C
1486299999.07,58676,11.38,72190.8,-0.55,-36.13,-36.97,0,*66
1486300000.32,58677,11.31,72186.5,-0.55,-36.01,-37.09,0,*62
1486300001.57,58678,11.31,72186.8,-0.55,-35.41,-36.73,0,*66
1486300002.82,58679,11.31,72190.8,-0.55,-35.07,-36.19,0,*69
1486300004.08,58680,11.31,72188.5,-0.53,-34.83,-35.83,0,*64
1486300005.31,58681,11.31,72190.0,-0.53,-35.07,-36.55,0,*60
1486300006.55,58682,11.31,72188.0,-0.53,-34.89,-35.95,0,*6B
1486300007.78,58683,11.31,72188.8,-0.53,-34.89,-35.83,0,*6D
1486300008.99,58684,11.31,72192.0,-0.49,-34.77,-35.71,0,*6D
1486300010.21,58685,11.31,72190.3,-0.51,-35.17,-36.31,0,*65
1486300011.45,58686,11.31,72190.5,-0.49,-34.83,-35.77,0,*62
1486300012.65,58687,11.31,72190.8,-0.49,-35.17,-36.07,0,*6B
1486300013.89,58688,11.38,72192.3,-0.49,-34.65,-35.59,0,*68
1486300015.13,58689,11.31,72190.5,-0.49,-34.83,-35.89,0,*6C
1486300016.39,58690,11.31,72190.5,-0.47,-34.83,-36.01,0,*69
1486300017.6,58691,11.31,72188.8,-0.49,-35.17,-36.67,0,*6A
1486300018.8,58692,11.31,72190.5,-0.49,-35.59,-37.03,0,*60
1486300020.05,58693,11.38,72190.3,-0.49,-36.13,-37.81,0,*66
1486300021.34,58694,11.31,72184.5,-0.51,-37.09,-38.49,0,*69
1486300022.59,58695,11.38,72188.8,-0.51,-36.49,-37.87,0,*60
1486300023.85,58696,11.38,72188.0,-0.51,-35.77,-36.91,0,*6B
1486300025.08,58697,11.31,72186.8,-0.51,-34.47,-35.71,0,*65
1486300026.34,58698,11.38,72188.5,-0.51,-34.31,-35.71,0,*6B
1486300027.57,58699,11.31,72186.5,-0.49,-35.35,-36.73,0,*67
1486300028.8,58700,11.38,72190.3,-0.51,-37.03,-38.61,0,*65
1486300030.04,58701,11.38,72188.5,-0.51,-35.23,-37.45,0,*6D
1486300031.26,58702,11.38,72190.0,-0.53,-33.55,-36.37,0,*6F
1486300032.55,58703,11.38,72190.3,-0.51,-31.61,-35.41,0,*6B
1486300033.77,58704,11.31,72186.5,-0.53,-30.77,-34.89,0,*6D
1486300034.97,58705,11.31,72186.5,-0.53,-29.57,-33.95,0,*6C
1486300036.23,58706,11.38,72190.0,-0.51,-29.83,-34.65,0,*6C
1486300037.51,58707,11.38,72188.0,-0.51,-30.51,-35.53,0,*6E
1486300038.77,58708,11.38,72186.8,-0.51,-31.17,-35.95,0,*68
1486300040.0,58709,11.31,72186.0,-0.49,-31.17,-35.53,0,*6A
1486300041.25,58710,11.38,72190.3,-0.49,-32.29,-36.49,0,*64
1486300042.5,58711,11.31,72186.5,-0.47,-33.49,-37.03,0,*63
1486300043.71,58712,11.31,72186.5,-0.49,-33.67,-36.85,0,*6D
1486300044.91,58713,11.38,72188.0,-0.49,-34.13,-37.03,0,*67
1486300046.14,58714,11.38,72186.8,-0.51,-34.41,-36.85,0,*61
1486300047.36,58715,11.31,72184.8,-0.49,-35.17,-37.21,0,*64
1486300048.59,58716,11.38,72186.0,-0.51,-35.71,-37.27,0,*68
1486300049.84,58717,11.31,72186.8,-0.49,-36.13,-37.69,0,*6D
1486300051.1,58718,11.38,72184.8,-0.51,-37.21,-38.43,0,*6C
1486300052.38,58719,11.31,72186.0,-0.51,-37.63,-38.49,0,*61
1486300053.6,58720,11.38,72188.3,-0.55,-37.15,-38.05,0,*66
1486300054.82,58721,11.31,72184.8,-0.55,-36.19,-36.97,0,*6F
1486300056.07,58722,11.38,72186.0,-0.55,-36.25,-36.97,0,*63
1486300057.32,58723,11.31,72180.5,-0.53,-36.25,-36.91,0,*62
1486300058.55,58724,11.31,72184.3,-0.55,-37.87,-38.55,0,*6C
1486300059.78,58725,11.31,72184.3,-0.55,-37.33,-37.75,0,*6F
1486300061.0,58726,11.38,72186.3,-0.57,-36.19,-36.61,0,*63
1486300062.25,58727,11.38,72190.3,-0.57,-36.25,-36.79,0,*64
1486300063.45,58728,11.31,72184.8,-0.57,-36.85,-37.33,0,*6E
1486300064.68,58729,11.31,72184.5,-0.57,-36.61,-37.15,0,*61
1486300065.91,58730,11.31,72182.3,-0.57,-36.85,-37.63,0,*62
1486300067.14,58731,11.31,72182.8,-0.57,-36.07,-36.49,0,*60
1486300068.37,58732,11.38,72182.3,-0.57,-36.07,-36.61,0,*69
1486300069.59,58733,11.31,72182.0,-0.57,-36.49,-36.97,0,*6B
1486300070.79,58734,11.31,72182.0,-0.57,-36.19,-36.43,0,*60
1486300071.99,58735,11.38,72182.5,-0.57,-35.89,-36.07,0,*6B
1486300073.22,58736,11.38,72180.8,-0.57,-35.65,-36.01,0,*6C
1486300074.49,58737,11.38,72184.3,-0.55,-35.65,-35.95,0,*61
1486300075.72,58738,11.31,72182.0,-0.55,-35.29,-35.59,0,*66
1486300076.97,58739,11.38,72182.3,-0.53,-35.23,-35.65,0,*64
1486300078.24,58740,11.38,72182.3,-0.55,-35.83,-36.13,0,*64
1486300079.49,58741,11.38,72180.8,-0.55,-36.01,-36.37,0,*6A
1486300080.72,58742,11.31,72182.3,-0.53,-34.95,-35.29,0,*6C
1486300081.95,58743,11.31,72182.3,-0.53,-35.47,-35.83,0,*63
1486300083.21,58744,11.38,72180.3,-0.51,-35.77,-36.13,0,*6F
1486300084.46,58745,11.31,72180.0,-0.51,-36.07,-36.49,0,*65
1486300085.67,58746,11.38,72182.8,-0.49,-35.89,-36.31,0,*65
1486300086.92,58747,11.31,72180.5,-0.51,-36.85,-37.09,0,*68
1486300088.15,58748,11.38,72180.5,-0.51,-37.03,-37.33,0,*61
1486300089.38,58749,11.31,72180.0,-0.53,-35.47,-35.83,0,*69
1486300090.58,58750,11.38,72184.5,-0.53,-36.01,-36.43,0,*6F
1486300091.83,58751,11.31,72182.5,-0.53,-36.25,-36.79,0,*61
1486300093.07,58752,11.31,72180.0,-0.53,-36.13,-36.37,0,*6D
1486300094.3,58753,11.38,72186.5,-0.51,-35.77,-36.07,0,*6C